[Date Prev][Date Next][Thread Prev][Thread Next] - [Date Index][Thread Index][Author Index]

2 Line ISS Keps 6-3



ISS
1 25544U 98067A   02154.19479167  .00028024  00000-0  34084-3 0  5237
2 25544  51.6361 123.2699 0006044 142.9526  48.0790 15.60306044201841


----
Via the sarex mailing list at AMSAT.ORG courtesy of AMSAT-NA.
To unsubscribe, send "unsubscribe sarex" to Majordomo@amsat.org



AMSAT Top AMSAT Home